Tracking 18852 objects as of 24-Nov-2017
HD Live streaming from Space Station
objects crossing your sky now

FENGYUN 1C DEB

Track FENGYUN 1C DEB now!
10-day predictions


NORAD ID: 31776
Int'l Code: 1999-025CGB
Perigee: 831.4 km
Apogee: 923.8 km
Inclination: 99.1 °
Period: 102.4 minutes
Semi major axis: 7248 km
RCS: 0.0078 m2 (small)
Launch date: May 10, 1999
Source: People's Republic of China (PRC)
Launch site: Taiyaun Space Center, China (TSC)

Note: This is SATELLITE DEBRIS
aabbcc
Your satellite tracking list
Your tracking list is empty




NASA's NSSDC Master Catalog

Two Line Element Set (TLE):
1 31776U 99025CGB 17326.39745462  .00000757  00000-0  47432-3 0  9990
2 31776  99.1002 296.5808 0063685 287.7729 226.7658 14.06764761538166
Source of the keplerian elements: AFSPC